,,Stat6,,Stat2,,Stat8,,Stat9,,Stat10,,Wind1,,Wind1,
time,status,PA1M_AVG,status,PR1M_SUM,status,RH1M_AVG,status,SR1M_AVG,status,TA1M_AVG,status,W1dAve1m,status,W1sAve1m,
2007-02-27, 00:00:00,VALID,916.763,VALID,0,VALID,100,VALID,-0.0169808,VALID,18.9915,VALID,132,VALID,1.27823,
2007-02-27, 00:01:00,VALID,916.755,VALID,0,VALID,100,VALID,0.0169808,VALID,18.9912,VALID,138,VALID,1.33683,
2007-02-27, 00:02:00,VALID,916.74,VALID,0,VALID,100,VALID,-0.0169808,VALID,18.9952,VALID,133,VALID,1.0904,
2007-02-27, 00:03:00,VALID,916.699,VALID,0,VALID,100,VALID,-0.0339617,VALID,18.9917,VALID,118,VALID,1.06854,
2007-02-27, 00:04:00,VALID,916.661,VALID,0,VALID,100,VALID,-0.0169808,VALID,18.9882,VALID,132,VALID,1.20762,
2007-02-27, 00:05:00,VALID,916.642,VALID,0,VALID,100,VALID,-0.0169808,VALID,18.985,VALID,147,VALID,1.14043,
2007-02-27, 00:06:00,VALID,916.619,VALID,0,VALID,100,VALID,0,VALID,18.9847,VALID,140,VALID,1.05059,
2007-02-27, 00:07:00,VALID,916.615,VALID,0,VALID,100,VALID,0.0169808,VALID,18.9847,VALID,135,VALID,1.09248,
2007-02-27, 00:08:00,VALID,916.61,VALID,0,VALID,100,VALID,0,VALID,18.9715,VALID,121,VALID,0.934451,
2007-02-27, 00:09:00,VALID,916.607,VALID,0,VALID,100,VALID,0,VALID,18.978,VALID,127,VALID,1.17605,
2007-02-27, 00:10:00,VALID,916.6,VALID,0,VALID,100,VALID,0,VALID,18.9783,VALID,136,VALID,1.27985,
2007-02-27, 00:11:00,VALID,916.59,VALID,0,VALID,100,VALID,-0.0339617,VALID,18.9919,VALID,136,VALID,1.14941,
2007-02-27, 00:12:00,VALID,916.589,VALID,0,VALID,100,VALID,0,VALID,18.9815,VALID,134,VALID,1.46076,
2007-02-27, 00:13:00,VALID,916.597,VALID,0,VALID,100,VALID,0,VALID,18.9783,VALID,138,VALID,1.26989,
2007-02-27, 00:14:00,VALID,916.608,VALID,0,VALID,100,VALID,-0.0339617,VALID,18.972,VALID,141,VALID,1.27217,
2007-02-27, 00:15:00,VALID,916.603,VALID,0,VALID,100,VALID,0,VALID,18.9683,VALID,137,VALID,1.16276,
2007-02-27, 00:16:00,VALID,916.592,VALID,0,VALID,100,VALID,0.0169808,VALID,18.9722,VALID,142,VALID,1.31138,
2007-02-27, 00:17:00,VALID,916.577,VALID,0,VALID,100,VALID,0,VALID,18.9655,VALID,140,VALID,1.22414,
2007-02-27, 00:18:00,VALID,916.573,VALID,0,VALID,100,VALID,0.0169808,VALID,18.975,VALID,146,VALID,1.27362,
2007-02-27, 00:19:00,VALID,916.567,VALID,0,VALID,100,VALID,0,VALID,18.972,VALID,153,VALID,1.35029,
2007-02-27, 00:20:00,VALID,916.557,VALID,0,VALID,100,VALID,-0.0339617,VALID,18.9623,VALID,150,VALID,1.52816,
2007-02-27, 00:21:00,VALID,916.559,VALID,0,VALID,100,VALID,-0.0169808,VALID,18.9523,VALID,154,VALID,1.44186,
2007-02-27, 00:22:00,VALID,916.557,VALID,0,VALID,100,VALID,-0.0169808,VALID,18.9533,VALID,156,VALID,1.23819,
2007-02-27, 00:23:00,VALID,916.567,VALID,0,VALID,100,VALID,-0.0509425,VALID,18.9268,VALID,149,VALID,1.47088,
2007-02-27, 00:24:00,VALID,916.567,VALID,0,VALID,100,VALID,0,VALID,18.9238,VALID,146,VALID,1.1912,
2007-02-27, 00:25:00,VALID,916.575,VALID,0,VALID,100,VALID,-0.0339617,VALID,18.9074,VALID,143,VALID,1.18845,
2007-02-27, 00:26:00,VALID,916.569,VALID,0,VALID,100,VALID,0,VALID,18.8974,VALID,143,VALID,0.929688,
2007-02-27, 00:27:00,VALID,916.561,VALID,0,VALID,100,VALID,-0.0169808,VALID,18.8909,VALID,137,VALID,1.07865,
2007-02-27, 00:28:00,VALID,916.533,VALID,0,VALID,100,VALID,-0.0339617,VALID,18.9044,VALID,125,VALID,0.860973,
2007-02-27, 00:29:00,VALID,916.516,VALID,0,VALID,100,VALID,-0.0679233,VALID,18.9081,VALID,140,VALID,0.917067,
2007-02-27, 00:30:00,VALID,916.482,VALID,0,VALID,100,VALID,-0.101885,VALID,18.9016,VALID,115,VALID,0.891602,
2007-02-27, 00:31:00,VALID,916.455,VALID,0,VALID,100,VALID,-0.0849042,VALID,18.9049,VALID,130,VALID,1.11105,
2007-02-27, 00:32:00,VALID,916.422,VALID,0,VALID,100,VALID,-0.0679233,VALID,18.9111,VALID,121,VALID,1.01799,
2007-02-27, 00:33:00,VALID,916.404,VALID,0,VALID,100,VALID,-0.0339617,VALID,18.9046,VALID,125,VALID,0.993963,
2007-02-27, 00:34:00,VALID,916.384,VALID,0,VALID,100,VALID,-0.0339617,VALID,18.9011,VALID,128,VALID,1.14267,
2007-02-27, 00:35:00,VALID,916.371,VALID,0,VALID,100,VALID,-0.0849042,VALID,18.9016,VALID,122,VALID,1.3718,
2007-02-27, 00:36:00,VALID,916.348,VALID,0,VALID,100,VALID,-0.0509425,VALID,18.9113,VALID,123,VALID,1.01926,
2007-02-27, 00:37:00,VALID,916.333,VALID,0,VALID,100,VALID,-0.0679233,VALID,18.9046,VALID,131,VALID,1.01793,
2007-02-27, 00:38:00,VALID,916.308,VALID,0,VALID,100,VALID,-0.0169808,VALID,18.9009,VALID,140,VALID,1.07236,
2007-02-27, 00:39:00,VALID,916.302,VALID,0,VALID,100,VALID,-0.0339617,VALID,18.9076,VALID,135,VALID,0.918899,
2007-02-27, 00:40:00,VALID,916.29,VALID,0,VALID,100,VALID,-0.0509425,VALID,18.9079,VALID,142,VALID,1.01791,
2007-02-27, 00:41:00,VALID,916.282,VALID,0,VALID,100,VALID,-0.0679233,VALID,18.9074,VALID,150,VALID,1.1305,
2007-02-27, 00:42:00,VALID,916.275,VALID,0,VALID,100,VALID,-0.0339617,VALID,18.9143,VALID,139,VALID,1.1502,
2007-02-27, 00:43:00,VALID,916.256,VALID,0,VALID,100,VALID,-0.101885,VALID,18.9176,VALID,130,VALID,1.23103,
2007-02-27, 00:44:00,VALID,916.238,VALID,0,VALID,100,VALID,-0.0849042,VALID,18.9243,VALID,119,VALID,1.12824,
2007-02-27, 00:45:00,VALID,916.221,VALID,0,VALID,100,VALID,-0.0509425,VALID,18.9139,VALID,105,VALID,0.68564,
2007-02-27, 00:46:00,VALID,916.204,VALID,0,VALID,100,VALID,-0.0509425,VALID,18.9308,VALID,84,VALID,0.703711,
2007-02-27, 00:47:00,VALID,916.185,VALID,0,VALID,100,VALID,-0.0509425,VALID,18.9306,VALID,62,VALID,0.982701,
2007-02-27, 00:48:00,VALID,916.169,VALID,0,VALID,100,VALID,-0.0679233,VALID,18.9178,VALID,70,VALID,1.02992,
2007-02-27, 00:49:00,VALID,916.149,VALID,0,VALID,100,VALID,-0.0679233,VALID,18.8944,VALID,91,VALID,0.919779,
2007-02-27, 00:50:00,VALID,916.133,VALID,0,VALID,100,VALID,0,VALID,18.8949,VALID,91,VALID,1.00288,
2007-02-27, 00:51:00,VALID,916.127,VALID,0,VALID,100,VALID,-0.0509425,VALID,18.8984,VALID,81,VALID,0.769354,
2007-02-27, 00:52:00,VALID,916.126,VALID,0,VALID,100,VALID,0,VALID,18.9079,VALID,82,VALID,0.65253,
2007-02-27, 00:53:00,VALID,916.136,VALID,0,VALID,100,VALID,-0.0339617,VALID,18.9109,VALID,90,VALID,0.473323,
2007-02-27, 00:54:00,VALID,916.137,VALID,0,VALID,100,VALID,0,VALID,18.9143,VALID,91,VALID,0.264695,
2007-02-27, 00:55:00,VALID,916.141,VALID,0,VALID,100,VALID,-0.0509425,VALID,18.9241,VALID,91,VALID,0.0386814,
2007-02-27, 00:56:00,VALID,916.141,VALID,0,VALID,100,VALID,-0.0169808,VALID,18.9338,VALID,91,VALID,0.350195,
2007-02-27, 00:57:00,VALID,916.144,VALID,0,VALID,100,VALID,-0.0679233,VALID,18.9336,VALID,103,VALID,0.472147,
2007-02-27, 00:58:00,VALID,916.144,VALID,0,VALID,100,VALID,-0.0339617,VALID,18.9403,VALID,175,VALID,0.544613,
2007-02-27, 00:59:00,VALID,916.155,VALID,0,VALID,100,VALID,-0.0679233,VALID,18.947,VALID,175,VALID,0.37429,
2007-02-27, 01:00:00,VALID,916.158,VALID,0,VALID,100,VALID,-0.0339617,VALID,18.937,VALID,175,VALID,0.564732,
2007-02-27, 01:01:00,VALID,916.172,VALID,0,VALID,100,VALID,-0.0339617,VALID,18.9336,VALID,172,VALID,0.338728,
2007-02-27, 01:02:00,VALID,916.196,VALID,0,VALID,100,VALID,-0.0849042,VALID,18.9338,VALID,171,VALID,0.00381541,
2007-02-27, 01:03:00,VALID,916.205,VALID,0,VALID,100,VALID,-0.0339617,VALID,18.9306,VALID,171,VALID,0.0102896,
2007-02-27, 01:04:00,VALID,916.203,VALID,0,VALID,100,VALID,-0.0339617,VALID,18.9296,VALID,121,VALID,0.507635,
2007-02-27, 01:05:00,VALID,916.191,VALID,0,VALID,100,VALID,-0.0339617,VALID,18.947,VALID,17,VALID,0.648438,
2007-02-27, 01:06:00,VALID,916.192,VALID,0,VALID,100,VALID,-0.0849042,VALID,18.9468,VALID,17,VALID,0.372738,
2007-02-27, 01:07:00,VALID,916.182,VALID,0,VALID,100,VALID,-0.101885,VALID,18.9113,VALID,17,VALID,0.411272,
2007-02-27, 01:08:00,VALID,916.154,VALID,0,VALID,100,VALID,-0.0679233,VALID,18.8782,VALID,17,VALID,0.466442,
2007-02-27, 01:09:00,VALID,916.141,VALID,0,VALID,100,VALID,-0.0339617,VALID,18.8752,VALID,17,VALID,0.52326,
2007-02-27, 01:10:00,VALID,916.099,VALID,0,VALID,100,VALID,-0.0509425,VALID,18.8659,VALID,17,VALID,0.241257,
2007-02-27, 01:11:00,VALID,916.086,VALID,0,VALID,100,VALID,-0.0679233,VALID,18.8428,VALID,17,VALID,0.268895,
2007-02-27, 01:12:00,VALID,916.065,VALID,0,VALID,100,VALID,-0.0339617,VALID,18.8492,VALID,17,VALID,0.28404,
2007-02-27, 01:13:00,VALID,916.04,VALID,0,VALID,100,VALID,-0.101885,VALID,18.856,VALID,17,VALID,0.239063,
2007-02-27, 01:14:00,VALID,916.014,VALID,0,VALID,100,VALID,-0.0169808,VALID,18.8363,VALID,17,VALID,0.409979,
2007-02-27, 01:15:00,VALID,915.997,VALID,0,VALID,100,VALID,-0.0339617,VALID,18.8201,VALID,17,VALID,0.453295,
2007-02-27, 01:16:00,VALID,915.975,VALID,0,VALID,100,VALID,-0.0169808,VALID,18.8166,VALID,17,VALID,0.464666,
2007-02-27, 01:17:00,VALID,915.926,VALID,0,VALID,100,VALID,-0.0509425,VALID,18.7913,VALID,26,VALID,0.505632,
2007-02-27, 01:18:00,VALID,915.91,VALID,0,VALID,100,VALID,-0.0339617,VALID,18.7714,VALID,79,VALID,0.611919,
2007-02-27, 01:19:00,VALID,915.889,VALID,0,VALID,100,VALID,-0.0169808,VALID,18.7582,VALID,82,VALID,0.67351,
2007-02-27, 01:20:00,VALID,915.884,VALID,0,VALID,100,VALID,0,VALID,18.7383,VALID,83,VALID,0.708333,
2007-02-27, 01:21:00,VALID,915.864,VALID,0,VALID,100,VALID,0,VALID,18.7422,VALID,98,VALID,0.791061,
2007-02-27, 01:22:00,VALID,915.856,VALID,0,VALID,100,VALID,0,VALID,18.7517,VALID,108,VALID,0.899826,
2007-02-27, 01:23:00,VALID,915.853,VALID,0,VALID,100,VALID,-0.0169808,VALID,18.7682,VALID,129,VALID,1.02418,
2007-02-27, 01:24:00,VALID,915.86,VALID,0,VALID,100,VALID,-0.0169808,VALID,18.7779,VALID,136,VALID,1.31582,
2007-02-27, 01:25:00,VALID,915.855,VALID,0,VALID,100,VALID,-0.0339617,VALID,18.7846,VALID,135,VALID,1.34048,
2007-02-27, 01:26:00,VALID,915.855,VALID,0,VALID,100,VALID,-0.0339617,VALID,18.7969,VALID,120,VALID,1.29249,
2007-02-27, 01:27:00,VALID,915.851,VALID,0,VALID,100,VALID,-0.0339617,VALID,18.827,VALID,123,VALID,1.01635,
2007-02-27, 01:28:00,VALID,915.858,VALID,0,VALID,100,VALID,-0.0679233,VALID,18.8265,VALID,125,VALID,0.908482,
2007-02-27, 01:29:00,VALID,915.858,VALID,0,VALID,100,VALID,-0.0339617,VALID,18.8293,VALID,125,VALID,0.881424,
2007-02-27, 01:30:00,VALID,915.835,VALID,0,VALID,100,VALID,0,VALID,18.8263,VALID,110,VALID,0.557106,
2007-02-27, 01:31:00,VALID,915.829,VALID,0,VALID,100,VALID,-0.0169808,VALID,18.8226,VALID,104,VALID,0.294215,
2007-02-27, 01:32:00,VALID,915.812,VALID,0,VALID,100,VALID,0,VALID,18.8231,VALID,91,VALID,0.438388,
2007-02-27, 01:33:00,VALID,915.788,VALID,0,VALID,100,VALID,-0.0339617,VALID,18.8263,VALID,91,VALID,0.0948153,
2007-02-27, 01:34:00,VALID,915.772,VALID,0,VALID,100,VALID,0,VALID,18.8226,VALID,91,VALID,0.175409,
2007-02-27, 01:35:00,VALID,915.755,VALID,0,VALID,100,VALID,-0.0339617,VALID,18.8191,VALID,87,VALID,0.212798,
2007-02-27, 01:36:00,VALID,915.751,VALID,0,VALID,100,VALID,0,VALID,18.8261,VALID,87,VALID,0.225654,
2007-02-27, 01:37:00,VALID,915.743,VALID,0,VALID,100,VALID,-0.0169808,VALID,18.8223,VALID,78,VALID,0.432745,
2007-02-27, 01:38:00,VALID,915.736,VALID,0,VALID,100,VALID,-0.0339617,VALID,18.8261,VALID,34,VALID,0.880996,
2007-02-27, 01:39:00,VALID,915.722,VALID,0,VALID,100,VALID,-0.0169808,VALID,18.8066,VALID,31,VALID,1.15941,
2007-02-27, 01:40:00,VALID,915.715,VALID,0,VALID,100,VALID,-0.0169808,VALID,18.8004,VALID,27,VALID,0.824124,
2007-02-27, 01:41:00,VALID,915.695,VALID,0,VALID,100,VALID,0,VALID,18.7871,VALID,26,VALID,0.500355,
2007-02-27, 01:42:00,VALID,915.677,VALID,0,VALID,100,VALID,0.0169808,VALID,18.7834,VALID,26,VALID,0.550037,
2007-02-27, 01:43:00,VALID,915.662,VALID,0,VALID,100,VALID,-0.0509425,VALID,18.7876,VALID,26,VALID,0.278587,
2007-02-27, 01:44:00,VALID,915.631,VALID,0,VALID,100,VALID,-0.0339617,VALID,18.7943,VALID,26,VALID,0.512718,
2007-02-27, 01:45:00,VALID,915.618,VALID,0,VALID,100,VALID,-0.0509425,VALID,18.7642,VALID,22,VALID,0.586509,
2007-02-27, 01:46:00,VALID,915.613,VALID,0,VALID,100,VALID,0,VALID,18.761,VALID,358,VALID,1.06019,
2007-02-27, 01:47:00,VALID,915.605,VALID,0,VALID,100,VALID,-0.0339617,VALID,18.7517,VALID,349,VALID,0.509448,
2007-02-27, 01:48:00,VALID,915.604,VALID,0,VALID,100,VALID,-0.0169808,VALID,18.7448,VALID,335,VALID,0.49442,
2007-02-27, 01:49:00,VALID,915.598,VALID,0,VALID,100,VALID,0.0169808,VALID,18.7649,VALID,325,VALID,0.538021,
2007-02-27, 01:50:00,VALID,915.608,VALID,0,VALID,100,VALID,-0.0339617,VALID,18.7841,VALID,322,VALID,0.119913,
2007-02-27, 01:51:00,VALID,915.606,VALID,0,VALID,100,VALID,0,VALID,18.7869,VALID,322,VALID,0,
2007-02-27, 01:52:00,VALID,915.612,VALID,0,VALID,100,VALID,0,VALID,18.7871,VALID,322,VALID,0.0463655,
2007-02-27, 01:53:00,VALID,915.621,VALID,0,VALID,100,VALID,0.0169808,VALID,18.7904,VALID,322,VALID,0.291243,
2007-02-27, 01:54:00,VALID,915.64,VALID,0,VALID,100,VALID,0,VALID,18.8006,VALID,322,VALID,0.343378,
2007-02-27, 01:55:00,VALID,915.645,VALID,0,VALID,100,VALID,-0.0339617,VALID,18.8076,VALID,322,VALID,0.299893,
2007-02-27, 01:56:00,VALID,915.657,VALID,0,VALID,100,VALID,-0.0169808,VALID,18.7904,VALID,322,VALID,0.411014,
2007-02-27, 01:57:00,VALID,915.643,VALID,0,VALID,100,VALID,0,VALID,18.7839,VALID,322,VALID,0.174293,
2007-02-27, 01:58:00,VALID,915.641,VALID,0,VALID,100,VALID,0,VALID,18.7737,VALID,348,VALID,0.180959,
2007-02-27, 01:59:00,VALID,915.648,VALID,0,VALID,100,VALID,-0.0339617,VALID,18.7804,VALID,358,VALID,0.363095,
2007-02-27, 02:00:00,VALID,915.639,VALID,0,VALID,100,VALID,-0.0169808,VALID,18.7874,VALID,7,VALID,0.316034,
2007-02-27, 02:01:00,VALID,915.632,VALID,0,VALID,100,VALID,-0.0509425,VALID,18.8101,VALID,21,VALID,0.493521,
2007-02-27, 02:02:00,VALID,915.617,VALID,0,VALID,100,VALID,-0.0339617,VALID,18.8163,VALID,41,VALID,0.86471,
2007-02-27, 02:03:00,VALID,915.617,VALID,0,VALID,100,VALID,0,VALID,18.84,VALID,49,VALID,0.963341,
2007-02-27, 02:04:00,VALID,915.597,VALID,0,VALID,100,VALID,-0.0509425,VALID,18.8462,VALID,56,VALID,1.05051,
2007-02-27, 02:05:00,VALID,915.588,VALID,0,VALID,100,VALID,-0.0339617,VALID,18.8525,VALID,63,VALID,0.952943,
2007-02-27, 02:06:00,VALID,915.586,VALID,0,VALID,100,VALID,-0.0509425,VALID,18.8594,VALID,64,VALID,0.904204,
2007-02-27, 02:07:00,VALID,915.592,VALID,0,VALID,100,VALID,-0.0679233,VALID,18.849,VALID,64,VALID,0.80522,
2007-02-27, 02:08:00,VALID,915.589,VALID,0,VALID,100,VALID,-0.0339617,VALID,18.859,VALID,64,VALID,0.697396,
2007-02-27, 02:09:00,VALID,915.591,VALID,0,VALID,100,VALID,-0.0339617,VALID,18.8685,VALID,65,VALID,0.676172,
2007-02-27, 02:10:00,VALID,915.586,VALID,0,VALID,100,VALID,-0.0509425,VALID,18.878,VALID,71,VALID,0.87282,
2007-02-27, 02:11:00,VALID,915.568,VALID,0,VALID,100,VALID,0,VALID,18.9074,VALID,83,VALID,0.947917,
2007-02-27, 02:12:00,VALID,915.559,VALID,0,VALID,100,VALID,-0.0169808,VALID,18.9104,VALID,95,VALID,1.01339,
2007-02-27, 02:13:00,VALID,915.544,VALID,0,VALID,100,VALID,-0.0169808,VALID,18.9041,VALID,96,VALID,1.02586,
2007-02-27, 02:14:00,VALID,915.534,VALID,0,VALID,100,VALID,-0.0169808,VALID,18.8944,VALID,92,VALID,1.09332,
2007-02-27, 02:15:00,VALID,915.526,VALID,0,VALID,100,VALID,-0.0169808,VALID,18.8974,VALID,84,VALID,1.20465,
2007-02-27, 02:16:00,VALID,915.513,VALID,0,VALID,100,VALID,-0.0169808,VALID,18.8974,VALID,84,VALID,0.98457,
2007-02-27, 02:17:00,VALID,915.504,VALID,0,VALID,100,VALID,-0.0169808,VALID,18.8715,VALID,84,VALID,1.23869,
2007-02-27, 02:18:00,VALID,915.508,VALID,0,VALID,100,VALID,-0.0169808,VALID,18.8687,VALID,85,VALID,1.16735,
2007-02-27, 02:19:00,VALID,915.499,VALID,0,VALID,100,VALID,-0.0339617,VALID,18.865,VALID,86,VALID,0.806504,
2007-02-27, 02:20:00,VALID,915.492,VALID,0,VALID,100,VALID,-0.0169808,VALID,18.8555,VALID,92,VALID,0.788517,
2007-02-27, 02:21:00,VALID,915.47,VALID,0,VALID,100,VALID,-0.0169808,VALID,18.8358,VALID,104,VALID,0.778706,
2007-02-27, 02:22:00,VALID,915.454,VALID,0,VALID,100,VALID,0,VALID,18.8226,VALID,126,VALID,0.896076,
2007-02-27, 02:23:00,VALID,915.44,VALID,0,VALID,100,VALID,-0.0339617,VALID,18.8029,VALID,132,VALID,0.883575,
2007-02-27, 02:24:00,VALID,915.419,VALID,0,VALID,100,VALID,0,VALID,18.7869,VALID,149,VALID,0.936756,
2007-02-27, 02:25:00,VALID,915.418,VALID,0,VALID,100,VALID,-0.0169808,VALID,18.7772,VALID,161,VALID,0.906068,
2007-02-27, 02:26:00,VALID,915.417,VALID,0,VALID,100,VALID,-0.0509425,VALID,18.7814,VALID,168,VALID,0.997456,
2007-02-27, 02:27:00,VALID,915.413,VALID,0,VALID,100,VALID,-0.0169808,VALID,18.7677,VALID,169,VALID,1.07069,
2007-02-27, 02:28:00,VALID,915.416,VALID,0,VALID,100,VALID,-0.0169808,VALID,18.7709,VALID,169,VALID,0.920573,
2007-02-27, 02:29:00,VALID,915.413,VALID,0,VALID,100,VALID,0.0169808,VALID,18.761,VALID,163,VALID,0.85902,
2007-02-27, 02:30:00,VALID,915.417,VALID,0,VALID,100,VALID,-0.0339617,VALID,18.7452,VALID,155,VALID,0.655342,
2007-02-27, 02:31:00,VALID,915.403,VALID,0,VALID,100,VALID,-0.0169808,VALID,18.7255,VALID,156,VALID,0.672676,
2007-02-27, 02:32:00,VALID,915.408,VALID,0,VALID,100,VALID,-0.0339617,VALID,18.7098,VALID,152,VALID,0.773438,
2007-02-27, 02:33:00,VALID,915.402,VALID,0,VALID,100,VALID,-0.0169808,VALID,18.6811,VALID,144,VALID,0.668241,
2007-02-27, 02:34:00,VALID,915.378,VALID,0,VALID,100,VALID,-0.0339617,VALID,18.6614,VALID,136,VALID,0.93859,
2007-02-27, 02:35:00,VALID,915.377,VALID,0,VALID,100,VALID,-0.0339617,VALID,18.6482,VALID,123,VALID,0.970117,
2007-02-27, 02:36:00,VALID,915.365,VALID,0,VALID,100,VALID,0,VALID,18.6417,VALID,112,VALID,0.92024,
2007-02-27, 02:37:00,VALID,915.359,VALID,0,VALID,100,VALID,-0.0169808,VALID,18.6287,VALID,105,VALID,0.958394,
2007-02-27, 02:38:00,VALID,915.356,VALID,0,VALID,100,VALID,-0.0679233,VALID,18.6387,VALID,92,VALID,0.760817,
2007-02-27, 02:39:00,VALID,915.356,VALID,0,VALID,100,VALID,-0.0169808,VALID,18.6354,VALID,87,VALID,0.975038,
2007-02-27, 02:40:00,VALID,915.328,VALID,0,VALID,100,VALID,-0.0509425,VALID,18.6422,VALID,87,VALID,0.728743,
2007-02-27, 02:41:00,VALID,915.319,VALID,0,VALID,100,VALID,-0.0339617,VALID,18.6484,VALID,92,VALID,0.944949,
2007-02-27, 02:42:00,VALID,915.299,VALID,0,VALID,100,VALID,-0.0169808,VALID,18.6672,VALID,108,VALID,1.06978,
2007-02-27, 02:43:00,VALID,915.303,VALID,0,VALID,100,VALID,-0.0509425,VALID,18.6938,VALID,119,VALID,1.1528,
2007-02-27, 02:44:00,VALID,915.313,VALID,0,VALID,100,VALID,-0.101885,VALID,18.7172,VALID,130,VALID,1.23746,
2007-02-27, 02:45:00,VALID,915.316,VALID,0,VALID,100,VALID,-0.135847,VALID,18.7272,VALID,150,VALID,1.40694,
2007-02-27, 02:46:00,VALID,915.322,VALID,0,VALID,100,VALID,-0.118866,VALID,18.7339,VALID,152,VALID,1.32051,
2007-02-27, 02:47:00,VALID,915.313,VALID,0,VALID,100,VALID,-0.152827,VALID,18.7077,VALID,158,VALID,1.26101,
2007-02-27, 02:48:00,VALID,915.299,VALID,0,VALID,100,VALID,-0.118866,VALID,18.7052,VALID,157,VALID,1.49163,
2007-02-27, 02:49:00,VALID,915.285,VALID,0,VALID,100,VALID,-0.118866,VALID,18.6751,VALID,151,VALID,1.34527,
2007-02-27, 02:50:00,VALID,915.247,VALID,0,VALID,100,VALID,-0.118866,VALID,18.6753,VALID,137,VALID,1.50558,
2007-02-27, 02:51:00,VALID,915.242,VALID,0,VALID,100,VALID,-0.152827,VALID,18.6725,VALID,130,VALID,1.19295,
2007-02-27, 02:52:00,VALID,915.211,VALID,0,VALID,100,VALID,-0.135847,VALID,18.6565,VALID,120,VALID,1.1131,
2007-02-27, 02:53:00,VALID,915.188,VALID,0,VALID,100,VALID,-0.118866,VALID,18.6297,VALID,103,VALID,0.912064,
2007-02-27, 02:54:00,VALID,915.166,VALID,0,VALID,100,VALID,-0.101885,VALID,18.6368,VALID,95,VALID,1.14719,
2007-02-27, 02:55:00,VALID,915.146,VALID,0,VALID,100,VALID,-0.101885,VALID,18.6164,VALID,97,VALID,1.09684,
2007-02-27, 02:56:00,VALID,915.147,VALID,0,VALID,100,VALID,-0.101885,VALID,18.6239,VALID,98,VALID,0.97168,
2007-02-27, 02:57:00,VALID,915.133,VALID,0,VALID,100,VALID,-0.101885,VALID,18.6167,VALID,99,VALID,0.905633,
2007-02-27, 02:58:00,VALID,915.141,VALID,0,VALID,100,VALID,-0.101885,VALID,18.61,VALID,92,VALID,0.762173,
2007-02-27, 02:59:00,VALID,915.143,VALID,0,VALID,100,VALID,-0.0509425,VALID,18.5963,VALID,92,VALID,0.629861,
2007-02-27, 03:00:00,VALID,915.147,VALID,0,VALID,100,VALID,-0.0679233,VALID,18.5798,VALID,94,VALID,0.652876,
2007-02-27, 03:01:00,VALID,915.151,VALID,0,VALID,100,VALID,0,VALID,18.5703,VALID,113,VALID,0.534784,
2007-02-27, 03:02:00,VALID,915.147,VALID,0,VALID,100,VALID,-0.118866,VALID,18.5671,VALID,121,VALID,0.860417,
2007-02-27, 03:03:00,VALID,915.142,VALID,0,VALID,100,VALID,-0.0169808,VALID,18.5676,VALID,139,VALID,0.759375,
2007-02-27, 03:04:00,VALID,915.153,VALID,0,VALID,100,VALID,-0.0169808,VALID,18.5666,VALID,141,VALID,0.774891,
2007-02-27, 03:05:00,VALID,915.147,VALID,0,VALID,100,VALID,-0.0339617,VALID,18.5831,VALID,124,VALID,0.577939,
2007-02-27, 03:06:00,VALID,915.146,VALID,0,VALID,100,VALID,0,VALID,18.593,VALID,122,VALID,0.21875,
2007-02-27, 03:07:00,VALID,915.138,VALID,0,VALID,100,VALID,0,VALID,18.6028,VALID,117,VALID,0.330031,
2007-02-27, 03:08:00,VALID,915.128,VALID,0,VALID,100,VALID,-0.0679233,VALID,18.596,VALID,107,VALID,0.432413,
2007-02-27, 03:09:00,VALID,915.109,VALID,0,VALID,100,VALID,-0.0339617,VALID,18.603,VALID,107,VALID,0.398247,
2007-02-27, 03:10:00,VALID,915.082,VALID,0,VALID,100,VALID,-0.0509425,VALID,18.6062,VALID,107,VALID,0.637767,
2007-02-27, 03:11:00,VALID,915.066,VALID,0,VALID,100,VALID,0,VALID,18.6127,VALID,107,VALID,0.654576,
2007-02-27, 03:12:00,VALID,915.045,VALID,0,VALID,100,VALID,-0.0339617,VALID,18.6222,VALID,107,VALID,0.551417,
2007-02-27, 03:13:00,VALID,915.038,VALID,0,VALID,100,VALID,-0.0509425,VALID,18.6419,VALID,107,VALID,0.368403,
2007-02-27, 03:14:00,VALID,915.029,VALID,0,VALID,100,VALID,-0.0509425,VALID,18.6484,VALID,107,VALID,0.358594,
2007-02-27, 03:15:00,VALID,915.034,VALID,0,VALID,100,VALID,-0.0679233,VALID,18.6581,VALID,107,VALID,0.0666921,
2007-02-27, 03:16:00,VALID,915.028,VALID,0,VALID,100,VALID,-0.0339617,VALID,18.6549,VALID,107,VALID,0.0558594,
2007-02-27, 03:17:00,VALID,915.022,VALID,0,VALID,100,VALID,-0.0169808,VALID,18.6549,VALID,107,VALID,0.273996,
2007-02-27, 03:18:00,VALID,915.017,VALID,0,VALID,100,VALID,-0.0849042,VALID,18.6509,VALID,107,VALID,0.171317,
2007-02-27, 03:19:00,VALID,915.004,VALID,0,VALID,100,VALID,-0.0339617,VALID,18.6579,VALID,107,VALID,0.0178052,
2007-02-27, 03:20:00,VALID,914.997,VALID,0,VALID,100,VALID,-0.0679233,VALID,18.6579,VALID,130,VALID,0.337936,
2007-02-27, 03:21:00,VALID,914.997,VALID,0,VALID,100,VALID,-0.101885,VALID,18.6649,VALID,228,VALID,0.346608,
2007-02-27, 03:22:00,VALID,914.99,VALID,0,VALID,100,VALID,-0.0849042,VALID,18.6584,VALID,228,VALID,0.379542,
2007-02-27, 03:23:00,VALID,914.988,VALID,0,VALID,100,VALID,-0.0679233,VALID,18.6584,VALID,236,VALID,0.575335,
2007-02-27, 03:24:00,VALID,914.97,VALID,0,VALID,100,VALID,-0.0509425,VALID,18.6609,VALID,237,VALID,0.434152,
2007-02-27, 03:25:00,VALID,914.95,VALID,0,VALID,100,VALID,-0.0849042,VALID,18.6579,VALID,237,VALID,0.303961,
2007-02-27, 03:26:00,VALID,914.928,VALID,0,VALID,100,VALID,-0.0849042,VALID,18.6516,VALID,217,VALID,0.515443,
2007-02-27, 03:27:00,VALID,914.906,VALID,0,VALID,100,VALID,-0.101885,VALID,18.6382,VALID,204,VALID,0.644345,
2007-02-27, 03:28:00,VALID,914.892,VALID,0,VALID,100,VALID,-0.0849042,VALID,18.6357,VALID,196,VALID,0.727108,
2007-02-27, 03:29:00,VALID,914.897,VALID,0,VALID,100,VALID,-0.0849042,VALID,18.6227,VALID,186,VALID,0.449898,
2007-02-27, 03:30:00,VALID,914.898,VALID,0,VALID,100,VALID,-0.0679233,VALID,18.5998,VALID,174,VALID,0.566907,
2007-02-27, 03:31:00,VALID,914.917,VALID,0,VALID,100,VALID,-0.0849042,VALID,18.5805,VALID,153,VALID,0.72017,
2007-02-27, 03:32:00,VALID,914.917,VALID,0,VALID,100,VALID,-0.0679233,VALID,18.5773,VALID,158,VALID,1.05735,
2007-02-27, 03:33:00,VALID,914.923,VALID,0,VALID,100,VALID,-0.0169808,VALID,18.5666,VALID,160,VALID,1.53924,
2007-02-27, 03:34:00,VALID,914.944,VALID,0,VALID,100,VALID,-0.0679233,VALID,18.5828,VALID,158,VALID,1.25191,
2007-02-27, 03:35:00,VALID,914.954,VALID,0,VALID,100,VALID,-0.0679233,VALID,18.6062,VALID,154,VALID,1.25036,
2007-02-27, 03:36:00,VALID,914.959,VALID,0,VALID,100,VALID,-0.101885,VALID,18.6232,VALID,155,VALID,1.22711,
2007-02-27, 03:37:00,VALID,914.939,VALID,0,VALID,100,VALID,-0.101885,VALID,18.6426,VALID,158,VALID,1.48316,
2007-02-27, 03:38:00,VALID,914.938,VALID,0,VALID,100,VALID,-0.0849042,VALID,18.6584,VALID,161,VALID,1.5191,